User: anonymous   Login
Location: Unspecified
(0.0000°N, 0.0000°E)
Time: 09:08:03
(UTC+00:00)
Language:

NADEZHDA 7 - Orbit

View from above orbital plane
View from above orbital plane
View from above satellite
View from above satellite

Ground track
Ground track

The orbit data is extracted from the following two-line orbital elements,

1 27534U 02046A   18109.84156897 +.00000042 +00000-0 +29758-4 0  9991
2 27534 082.9389 012.5821 0035778 336.3001 088.2798 13.72697060779665
Epoch (UTC): 19 April 2018 20:11:51
Eccentricity: 0.0035778
inclination: 82.9389°
perigee height: 963 km
apogee height: 1016 km
right ascension of ascending node: 12.5821°
argument of perigee: 336.3001°
revolutions per day: 13.72697060
mean anomaly at epoch: 88.2798°
orbit number at epoch: 77966

The dashed part of the orbit path shows where the satellite is in the earth's shadow,  

DLR